Location: Cincinnati Observatory Center
(39.1389°N, 84.4225°W)
Time: 07:11:37
(UTC-04:00)

Hubble Space Telescope - Visible Passes

Search period start: 30 July 2016 00:00
Search period end: 09 August 2016 00:00
Orbit: 539 x 543 km, 28.5° (Epoch: 29 July)

Date Brightness Start Highest point End Pass type
(mag) Time Alt. Az. Time Alt. Az. Time Alt. Az.
01 Aug 3.1 06:06:18 10° S 06:07:46 12° SSE 06:09:14 10° SE visible
02 Aug 3.0 05:55:52 10° SSW 05:57:55 13° SSE 05:59:57 10° SE visible
03 Aug 2.8 05:45:41 10° SSW 05:48:04 15° S 05:50:27 10° SE visible
04 Aug 2.7 05:36:22 13° SSW 05:38:13 16° S 05:40:50 10° SE visible
05 Aug 2.5 05:27:09 16° SSW 05:28:22 17° S 05:31:09 10° SE visible
06 Aug 2.4 05:17:58 18° S 05:18:32 18° S 05:21:24 10° SE visible
07 Aug 2.4 05:08:50 18° S 05:08:50 18° S 05:11:37 10° SE visible
08 Aug 2.6 04:59:47 17° SSE 04:59:47 17° SSE 05:01:46 10° SE visible
